Vorticity
nan nan nan nan nan nan nan nan nan nan nan nan nan nan nan nan nan nan nan nan nan nan nan nan nan nan nan nan nan nan nan nan nan nan nan nan nan nan nan nan nan nan nan nan nan
nan 7 7 7 8 8 8 8 8 8 8 9 9 8 8 9 13 15 14 14 13 7 9 5 6 6 6 8 7 6 -2 3 9 9 5 1 1 9 12 2 6 8 11 11 nan
nan 7 7 7 7 8 8 7 8 9 10 10 9 9 8 7 15 21 13 7 8 5 5 4 5 6 5 9 6 1 -2 7 4 2 1 4 13 4 5 10 20 13 4 5 nan
nan 7 7 7 7 7 7 9 9 10 10 10 10 9 11 9 9 15 15 8 11 5 5 6 5 6 8 8 3 4 5 -3 -0 2 8 3 5 11 4 8 15 23 15 7 nan
nan 7 7 7 7 8 8 9 10 10 10 11 11 11 10 6 9 14 12 12 10 6 7 7 7 5 8 5 5 4 2 5 5 1 6 10 5 8 11 11 12 12 10 7 nan
nan 7 7 7 8 8 8 9 11 13 13 13 11 8 6 8 11 12 11 7 6 7 8 4 6 3 5 14 7 9 6 -3 5 8 6 8 6 7 15 12 13 7 8 7 nan
nan 7 7 7 8 8 9 10 12 16 15 12 8 4 4 12 12 12 7 5 6 8 5 6 7 9 5 8 9 4 10 7 9 9 3 10 14 13 21 14 10 7 7 8 nan
nan 7 8 7 7 8 9 12 13 13 12 9 6 5 10 13 11 11 5 5 5 8 11 9 7 7 5 6 13 12 6 11 16 10 9 7 21 16 1 8 8 8 8 8 nan
nan 8 8 8 8 9 9 16 18 8 8 8 8 7 9 9 15 10 7 8 5 6 10 8 9 12 9 7 9 8 14 14 3 4 7 6 -5 13 8 8 7 7 9 8 nan
nan 8 8 8 8 10 17 21 13 10 8 0 7 11 11 11 15 10 8 7 7 5 5 7 8 9 7 6 6 11 8 2 6 8 4 7 16 2 8 4 8 9 8 9 nan
nan 8 8 8 9 10 22 20 12 11 1 -2 5 10 10 12 13 11 10 5 5 5 6 9 3 6 7 2 -3 4 7 9 11 4 8 6 8 9 12 7 6 10 7 8 nan
nan 8 8 8 9 19 17 10 8 6 10 16 13 9 8 6 6 13 7 2 7 6 7 3 11 8 6 7 11 8 7 8 3 8 6 6 4 12 10 5 10 10 6 10 nan
nan 8 9 7 22 24 9 9 4 14 12 18 18 16 14 8 7 9 6 3 5 5 6 -1 7 17 9 7 9 8 8 9 10 6 3 13 12 11 2 15 8 7 13 9 nan
nan 8 6 22 22 12 15 1 8 11 17 22 13 14 14 11 18 12 13 2 1 10 9 8 5 7 10 10 8 10 13 3 9 4 10 6 13 25 8 5 6 7 10 9 nan
nan 9 13 18 15 6 5 4 12 10 9 14 11 8 12 3 15 25 9 0 5 9 10 6 15 5 8 13 7 5 10 11 12 8 7 5 8 9 16 6 13 13 10 10 nan
nan 9 21 21 9 6 2 11 14 8 18 7 5 7 3 8 3 16 9 5 5 11 6 4 6 14 14 9 10 8 7 9 11 12 13 17 4 2 13 16 11 14 11 13 nan
nan 16 18 9 7 9 12 14 8 6 8 14 6 9 5 10 8 9 13 8 2 8 5 14 3 5 14 11 11 9 4 6 10 12 12 11 9 12 12 12 10 12 9 10 nan
nan 30 19 4 6 7 13 12 5 9 1 3 9 9 13 13 11 10 7 7 5 -2 7 15 13 14 6 8 8 14 -1 3 -1 4 14 5 7 10 14 13 8 8 11 10 nan
nan 28 7 16 12 8 13 8 6 3 13 9 7 12 10 3 14 17 10 8 8 3 5 7 5 21 15 6 5 6 10 1 3 6 13 8 8 8 3 8 10 11 10 8 nan
nan 16 22 15 11 8 9 8 2 4 8 11 12 10 11 13 9 4 8 12 12 10 2 2 16 14 14 11 12 5 11 8 7 7 12 6 5 19 4 8 8 9 10 10 nan
nan 11 18 11 6 9 11 9 7 5 5 6 10 7 9 9 12 9 7 14 19 7 8 4 11 6 12 12 10 9 5 7 9 7 8 15 15 6 16 21 10 9 10 10 nan
nan 13 10 8 7 9 10 1 6 15 9 4 4 12 16 6 8 13 13 19 15 10 12 8 4 11 6 10 9 9 7 4 10 4 1 13 15 4 21 16 11 10 10 11 nan
nan 15 13 7 7 9 8 9 10 7 4 11 8 9 9 7 9 13 7 10 11 11 19 11 6 10 10 10 7 12 13 15 3 3 11 10 6 5 7 14 11 10 11 12 nan
nan 14 11 8 2 8 19 16 8 4 12 9 9 9 10 9 5 12 10 -1 9 4 5 19 16 8 2 3 17 14 10 7 7 8 7 -0 6 16 16 12 9 10 10 10 nan
nan 5 11 17 15 9 9 13 13 9 12 6 9 10 9 9 10 5 12 9 3 10 5 11 9 6 2 5 8 17 18 7 7 2 4 1 7 16 7 25 10 8 9 8 nan
nan 7 6 8 9 20 19 7 12 14 8 10 11 10 5 9 12 11 13 10 13 6 5 7 6 6 14 12 4 7 4 10 14 12 2 -1 24 43 13 0 11 8 6 11 nan
nan nan nan nan nan nan nan nan nan nan nan nan nan nan nan nan nan nan nan nan nan nan nan nan nan nan nan nan nan nan nan nan nan nan nan nan nan nan nan nan nan nan nan nan nan
CAPE
0 0 0 0 0 0 0 0 1 3 2 2 0 0 1 0 0 0 0 0 0 13 37 0 0 0 0 0 32 210 525 319 264 221 304 232 152 126 296 651 880 1015 1354 1873 2440
0 0 0 0 0 0 0 0 2 4 1 1 0 0 1 0 0 0 0 0 0 81 0 0 0 0 0 0 68 277 309 238 445 399 343 229 152 117 299 472 1143 1935 2017 2341 2428
0 0 0 0 0 0 0 1 3 1 1 0 1 0 1 0 0 0 4 0 0 0 0 0 0 0 0 0 76 136 350 443 365 323 213 164 163 187 239 349 432 2179 2450 2334 2338
0 0 0 0 0 0 0 1 3 0 0 0 1 1 1 0 0 4 62 0 80 0 0 0 0 0 0 0 40 152 215 390 458 349 224 205 160 101 198 279 499 1458 2410 2299 2283
0 0 0 0 0 0 0 1 2 2 1 0 0 1 0 0 0 1 1 8 0 0 0 0 0 0 0 0 0 93 267 482 451 320 281 134 105 200 204 402 702 1762 2078 2182 2294
0 0 0 0 0 0 0 1 2 1 1 2 0 0 0 0 0 0 0 0 0 0 0 0 0 0 0 0 0 350 286 449 271 243 247 224 175 209 803 623 1008 1820 2075 2001 2148
0 0 0 0 0 0 0 1 2 0 1 1 0 0 0 0 0 0 0 0 0 0 0 0 0 0 0 0 1 375 566 310 304 262 137 203 51 10 953 949 1446 1777 2035 1811 2064
0 0 0 0 0 0 0 1 0 0 0 0 0 0 0 0 0 0 0 0 0 0 0 0 0 0 1 48 283 266 288 270 217 251 163 203 300 1050 1138 1227 1643 1690 1926 1723 2067
0 1 0 0 0 0 0 0 2 1 1 1 0 0 0 0 0 0 0 0 0 0 0 0 0 0 68 111 181 327 217 348 397 170 129 116 235 941 1195 1232 1552 1691 1789 1643 1965
2 2 2 1 0 0 0 0 1 0 0 0 0 0 0 0 0 0 0 0 0 0 0 0 0 5 82 388 463 474 561 372 318 276 119 114 287 492 1043 1179 1196 1594 1828 1827 1935
2 1 1 1 0 0 0 0 0 0 0 0 0 0 0 0 0 0 0 0 0 0 0 0 0 0 0 188 247 221 328 527 239 209 128 89 375 405 654 816 884 1379 1774 1895 1918
1 1 1 1 0 0 0 0 0 0 0 0 0 0 0 0 0 0 0 0 0 0 0 0 0 0 0 0 15 153 286 384 237 186 135 47 118 207 657 515 504 1122 1371 1663 1841
1 2 1 1 0 0 0 0 0 0 0 0 0 0 0 0 0 0 0 0 0 0 0 0 0 0 0 0 0 23 110 152 96 142 91 10 112 120 76 324 578 950 1116 1310 1389
2 3 0 1 0 0 0 0 0 0 0 0 0 0 0 0 0 0 0 0 0 0 0 0 0 0 0 0 0 0 0 0 0 150 173 110 234 264 288 225 435 945 1093 1130 1005
3 2 2 1 0 0 0 0 0 0 0 0 0 0 0 0 0 0 0 0 0 0 0 0 0 0 0 0 0 0 0 0 0 5 6 15 95 181 287 143 72 408 820 943 1140
1 1 1 0 0 0 0 0 0 0 0 0 0 0 0 0 0 0 0 0 0 0 0 0 0 0 0 0 0 0 0 0 0 0 13 33 175 198 222 134 258 752 943 1110 2066
0 0 2 0 0 0 0 0 0 0 0 0 0 0 0 0 0 0 0 0 0 0 0 0 0 0 0 0 0 0 0 0 3 21 63 238 239 143 228 891 612 1143 1333 1495 2147
0 0 0 0 0 0 0 0 0 0 0 0 0 0 0 0 0 0 0 0 0 0 0 0 0 0 0 0 0 0 0 0 101 128 202 288 111 237 828 1131 1108 1144 1205 1708 1751
0 0 0 0 0 0 0 0 0 0 0 0 0 0 0 0 0 0 0 0 0 0 0 0 0 0 0 0 0 0 0 0 0 37 172 287 130 857 924 885 1242 1216 1042 1621 1683
0 0 0 0 0 0 0 0 0 0 0 0 0 0 0 0 0 0 0 0 0 0 0 0 0 0 0 0 0 0 0 0 0 99 130 90 115 192 690 1164 1492 1273 1271 1691 1961
0 0 0 0 0 0 0 0 0 0 0 0 0 0 0 0 0 0 0 0 0 0 0 0 0 5 0 0 0 0 0 0 28 85 163 139 290 302 231 1286 1430 1617 1464 2101 2231
0 0 0 0 0 0 0 0 0 0 0 0 0 0 0 0 0 0 0 0 0 0 0 0 0 0 2 0 0 0 0 0 52 99 169 214 354 345 916 1042 1171 1881 1603 1941 2089
0 0 0 0 0 0 0 0 0 0 0 0 0 0 0 0 0 0 0 0 0 0 0 0 0 2 2 30 0 0 0 0 0 25 201 66 54 54 231 804 1030 2013 1816 1972 2419
0 0 0 0 0 0 0 0 0 0 0 0 0 0 0 0 0 0 0 0 0 0 807 112 0 1 74 73 43 2 0 2 22 105 138 234 36 174 469 984 1747 2095 2264 2502 2731
3 0 19 4 0 0 0 0 0 0 0 0 0 0 0 0 0 0 0 0 7 0 118 305 72 34 42 12 73 31 0 0 51 58 117 24 31 151 173 1479 1873 2250 2383 2292 2465
22 35 38 7 32 12 0 0 0 0 0 0 0 0 0 0 0 0 0 0 11 12 0 365 286 100 70 50 63 44 15 4 37 59 64 80 78 65 5 1558 1971 2202 1968 1883 1949
7 7 8 0 8 26 11 7 0 0 0 0 0 0 0 0 0 2 51 151 121 361 52 98 225 118 120 117 90 96 43 25 10 26 77 79 659 1117 1357 1464 1505 1708 1753 1955 1814